Aérodrome :
LOGIN :

S'inscrire | Disclaimer

   EN    FR    IT 

 










Légende :    VFR   VFR Marginal   IFR   IFR Intensif   IFR Très Intensif
Visi : 
Plafond : 
>= 8 km
>= 3000ft
5 à 8 km
1000 à 3000 ft
1500m à 5 km
500 à 1000 ft
800 à 1500m
200 à 500 ft
< 800m
< 200 ft
Symboles :   Orages  Brouillard  Fortes neiges  Fortes précipitations  Vent > 20 kt
SIGMETs :   Divers  Orages  Givrage  Turbulence  Onde Orograph.  Cendres Volcan.







- Altitude de l'aérodrome : 353 ft
- Code IATA : LIN


LIML - Milano Linate

DERNIER METAR :
  • 172250Z 21002KT 6000 FEW015 BKN060 05/03 Q1018 NOSIG

METARs EXPIRÉS :
  • 172220Z VRB02KT 6000 FEW015 BKN060 06/03 Q1018 NOSIG
  • 172150Z 25003KT 210V270 6000 FEW015 BKN060 06/03 Q1018 NOSIG
  • 172120Z VRB02KT 6000 FEW015 BKN060 06/03 Q1018 NOSIG
  • 172050Z 22002KT 6000 FEW015 BKN060 06/02 Q1018 NOSIG
  • 172020Z 22003KT 6000 FEW015 BKN060 06/02 Q1018 NOSIG

TAF TAF LIML
Valide du 17 à 18h jusqu'au 18 à 18h UTC


171700Z 1718/1818 VRB05KT 4000 BR SCT020 BKN050
BECMG 1719/1722 2000 BR
TEMPO 1722/1808 1200 BCFG
TEMPO 1802/1807 0600 FG BKN005
BECMG 1608/1810 4000
Pas de NOTAMs connus pour ce terrain.



MET'MAP, la Météo Aéronautique d'un coup d'oeil ! - Copyright ORBIFLY Décembre 2007 - Disclaimer

ORBIFLY MET'MAP TEAM :

Programmation & Développement : Alexandra Zaïnal
Conception & Développement : Baudouin d'Aumeries
Co-Programmation & Développement : Marc-Olivier Méhu
Soutien technique & logistique : Manuel Goepfert

Contact : metmap@orbifly.com




SOURCES & CREDITS :

   NOAA